Погода в Йорке

Великобритания     53°57′51″N   1°05′08″W
темп.,
°C
ветер,
м/с
пор.,
м/с
влажн.,
%
обл.,
%
осадки,
мм/ч
давл.,
гПа
погр.,
м
10 мая, пн
пн1001:00+10ююв379773 0.2 994180
04:00+9ю41095100 0.0 993328
07:00+9ю5109387 0.0 994603
10:00+11ю61182100 0.0 9961262
13:00+14ю81273100 0.3 9961697
16:00+14ююз8137352 0.9 9971773
19:00+12ююз8128015 1.7 9991001
22:00+9ю613853 0.0 1002501
11 мая, вт
вт1101:00+6ю511920 0.0 1005300
04:00+4ю39950 0.0 1006162
07:00+6ююв358736 0.0 1007156
10:00+12ююв56715 0.0 1008818
13:00+15ююв566396 0.2 10071420
16:00+13вюв698198 1.6 10071035
19:00+12юв71288100 3.6 1006797
22:00+10юв5108974 2.0 1007389
12 мая, ср
ср1201:00+7ююв51094100 2.1 1006342
04:00+5юв3898100 0.0 1007200
07:00+7юв3797100 0.0 1008292
10:00+12ю678282 0.2 1008905
13:00+12ю4678100 0.4 1009884
16:00+12ююв4680100 0.2 1009658
19:00+12ююв468117 0.3 1009486
22:00+8ююв349216 0.1 101075
13 мая, чт
чт1301:00+6ю229436 0.1 101115
04:00+5ю119388 0.0 101110
07:00+8зюз018969 0.0 101173
10:00+13зсз007287 0.0 1011636
13:00+15ссз115899 0.1 10111431
16:00+14в447793 1.3 1010845
19:00+11всв568376 1.9 1011532
22:00+6ссв389613 0.0 1012213
14 мая, пт
пт1401:00+6с478985 0.0 1012229
04:00+7с5777100 0.0 1012522
07:00+8с5773100 0.0 1012933
10:00+9с5672100 0.0 10121120
13:00+9с5676100 0.1 1013918
16:00+10с5672100 0.1 1013997
19:00+10ссз3577100 0.1 1013740
22:00+8сз228399 0.0 101434